[[{"header":{"parameterUnit":"m.s-1","parameterCategory":1,"la1":30.2991,"la2":30.254,"lo1":-89.0895,"lo2":-89.0444,"dy":0.0017,"dx":0.0017,"nx":28,"ny":28,"refTime":"2023-11-10T09:00:00:Z","depth":0,"parameterNumber":2,"parameterNumberName":"U-component_of_WINDS"},"data":[0,0,0,0,0,0,0,0,0,0,0,0,0,0,0,0,0,0,0,0,0,0,0,0,0,0,0,0,0,0,0,0,0,0,0,0,0,0,0,0,0,0,0,0,0,0,0,0,0,0,0,0,0,0,0,0,0,0,-0.8721,-0.8724,0,-0.8969,-0.8972,-0.8975,-0.9073,-0.9073,-0.9072,-0.9072,-0.9334,-0.9342,-0.9349,0,0,0,0,0,0,0,0,0,0,0,0,0,-0.8342,-0.8348,-0.8721,-0.8724,-0.8727,-0.8969,-0.8972,-0.8976,-0.9074,-0.9073,-0.9072,-0.9071,-0.9332,-0.9341,-0.935,0,0,0,0,0,0,0,0,0,0,0,0,0,-0.854,-0.835,-0.872,-0.8805,-0.8815,-0.8968,-0.8972,-0.8977,-0.9074,-0.9073,-0.9072,-0.9071,-0.9329,-0.934,-0.9351,-0.9441,0,0,-0.9386,-0.9391,0,0,0,0,0,0,0,0,-0.8529,-0.8554,-0.8789,-0.8799,-0.8811,-0.8989,-0.8935,-0.9133,-0.9074,-0.8976,-0.9072,-0.907,-0.9221,-0.9241,-0.929,-0.9454,-0.9465,-0.9387,-0.9394,-0.9399,-0.9402,0,0,0,0,0,0,0,-0.8515,-0.8544,-0.882,-0.8793,-0.8806,-0.8834,-0.8861,-0.8973,-0.9101,-0.8984,-0.8992,-0.902,-0.9227,-0.9279,-0.9297,-0.9469,-0.9387,-0.9397,-0.9404,-0.9408,-0.9723,-0.9725,0,0,0,0,0,0,-0.8486,-0.8532,-0.8812,-0.8827,-0.8664,-0.8841,-0.8872,-0.8933,-0.91,-0.9124,-0.902,-0.9023,-0.926,-0.9284,-0.9307,-0.9426,-0.9399,-0.941,-0.9416,-0.9722,-0.9724,-0.9725,0,0,0,0,0,0,-0.8477,-0.851,-0.8802,-0.8682,-0.8721,-0.8849,-0.8917,-0.8939,-0.8991,-0.9127,-0.9151,-0.9049,-0.926,-0.9291,-0.9407,-0.9436,-0.9415,-0.9425,-0.972,-0.9722,-0.9724,-0.9662,0,0,0,0,0,0,-0.8466,-0.8506,-0.8539,-0.8681,-0.8727,-0.8895,-0.8919,-0.8944,-0.9009,-0.9016,-0.9161,-0.9184,-0.9262,-0.939,-0.9419,-0.9451,-0.9434,-0.9718,-0.9721,-0.9724,-0.9663,-0.9662,-0.9662,0,0,0,0,0,-0.8452,-0.8513,-0.854,-0.8573,-0.877,-0.8896,-0.8923,-0.9008,-0.9011,-0.9047,-0.9135,-0.918,-0.9428,-0.9401,-0.9434,-0.9471,-0.9717,-0.972,-0.9723,-0.9663,-0.9662,-0.9662,0,0,0,0,0,0,-0.8373,-0.8533,-0.8565,-0.8673,-0.877,-0.8912,-0.896,-0.9004,-0.9105,-0.9107,-0.9211,-0.9244,-0.9352,-0.9424,-0.9391,-0.9569,-0.9576,-0.9586,-0.9518,-0.9519,-0.9519,-0.95,-0.9443,0,0,0,0,0,-0.8367,-0.8453,-0.859,-0.8673,-0.8719,-0.8831,-0.8889,-0.8947,-0.9053,-0.9095,-0.9191,-0.9295,-0.9397,-0.9462,-0.9563,-0.9673,-0.9709,-0.9715,-0.9715,-0.9714,-0.9722,-0.9789,-0.9795,-0.9736,-0.9736,-0.9736,0,0,-0.8359,-0.8457,-0.8505,-0.8659,-0.8741,-0.8831,-0.8865,-0.8958,-0.9028,-0.911,-0.9226,-0.9301,-0.9424,-0.9538,-0.9593,-0.9601,-0.9746,-0.9718,-0.9717,-0.9726,-0.9793,-0.9799,-0.9804,-0.9739,-0.9738,-0.9738,0,0,-0.8388,-0.8469,-0.8548,-0.8629,-0.8752,-0.8826,-0.8845,-0.8982,-0.9034,-0.9151,-0.9216,-0.9301,-0.9473,-0.9559,-0.9625,-0.9689,-0.9735,-0.972,-0.9719,-0.9783,-0.9788,-0.9793,-0.9818,-0.9826,-0.9727,-0.9727,-0.9727,0,-0.8362,-0.8497,-0.8584,-0.8674,-0.8742,-0.8818,-0.8901,-0.8977,-0.9127,-0.9174,-0.9179,-0.9398,-0.9486,-0.9623,-0.9639,-0.9689,-0.9717,-0.9704,-0.978,-0.9785,-0.9791,-0.9817,-0.9826,-0.9725,-0.9725,-0.9725,-0.9725,0,-0.846,-0.8553,-0.8603,-0.8744,-0.8817,-0.8903,-0.9006,-0.907,-0.9122,-0.9197,-0.9318,-0.9426,-0.9552,-0.9589,-0.964,-0.9734,-0.9735,-0.9759,-0.9768,-0.9792,-0.9819,-0.9829,-0.9721,-0.9722,-0.9723,-0.9723,0,0,-0.8447,-0.8635,-0.8652,-0.8718,-0.886,-0.8935,-0.9026,-0.9147,-0.9201,-0.9303,-0.9385,-0.953,-0.9553,-0.9628,-0.9691,-0.9747,-0.9794,-0.9764,-0.9769,-0.9768,-0.9908,-0.9891,-0.99,-0.9825,-0.9827,-0.9829,-0.9899,0,-0.8497,-0.8659,-0.8741,-0.887,-0.8959,-0.9035,-0.9115,-0.9213,-0.9286,-0.9375,-0.9457,-0.9559,-0.958,-0.9626,-0.9685,-0.9775,-0.9824,-0.9772,-0.9906,-0.9909,-0.9873,-0.9914,-0.9895,-0.9955,-0.9909,-0.9911,-0.9912,0,-0.8576,-0.8675,-0.8812,-0.8946,-0.8986,-0.9056,-0.9175,-0.9258,-0.9372,-0.9422,-0.9506,-0.9567,-0.967,-0.9671,-0.9817,-0.978,-0.984,-0.9893,-0.9898,-0.9915,-0.9913,-0.9934,-0.9976,-0.9986,-0.9929,-0.9927,-0.9926,0,-0.8555,-0.8723,-0.8827,-0.8881,-0.9039,-0.9087,-0.9156,-0.9269,-0.9337,-0.9442,-0.9488,-0.9603,-0.9668,-0.9758,-0.9851,-0.9843,-0.9989,-0.9997,-1.0037,-1.0035,-1.0065,-1.0062,-1.012,-1.01,-1.01,-1.01,-1.01,0,-0.8603,-0.8684,-0.882,-0.8884,-0.8979,-0.9074,-0.9167,-0.9242,-0.9342,-0.9426,-0.9499,-0.9576,-0.9693,-0.9787,-0.986,-0.9972,-1.0,-1.0046,-1.0065,-1.004,-1.0035,-1.0082,-1.0081,-1.0103,-1.0102,-1.0102,-1.0101,0,-0.8595,-0.8689,-0.8808,-0.8947,-0.8985,-0.9049,-0.9171,-0.9238,-0.9315,-0.942,-0.945,-0.9572,-0.9686,-0.9787,-0.9939,-0.9989,-1.0104,-1.0126,-1.0064,-1.0075,-1.0109,-1.0105,-1.0201,-1.022,-1.0185,-1.0185,-1.0185,0,-0.862,-0.8684,-0.8831,-0.889,-0.8957,-0.9052,-0.9121,-0.9219,-0.9289,-0.9425,-0.9477,-0.9596,-0.9696,-0.9875,-0.998,-1.0097,-1.0125,-1.015,-1.0143,-1.0117,-1.0128,-1.0124,-1.0132,-1.015,-1.015,-1.015,-1.015,0,-0.8655,-0.8699,-0.8794,-0.8907,-0.8987,-0.9081,-0.9178,-0.9223,-0.934,-0.9416,-0.9531,-0.9609,-0.9763,-0.9882,-1.0011,-1.0087,-1.0139,-1.0151,-1.0167,-1.0143,-1.0105,-1.0129,-1.0065,-1.0149,-1.0149,-1.0149,-1.0149,-1.0149,-0.8667,-0.8728,-0.8841,-0.8946,-0.9028,-0.9117,-0.9188,-0.9274,-0.9371,-0.9502,-0.9555,-0.9674,-0.9791,-0.9969,-1.0045,-1.0142,-1.0152,-1.0174,-1.018,-1.0184,-1.0181,-1.0088,-1.0166,-1.0166,-1.0166,-1.0166,-1.0166,0,-0.8707,-0.8784,-0.8879,-0.9011,-0.9095,-0.9133,-0.9243,-0.9312,-0.9414,-0.9517,-0.9614,-0.9749,-0.9865,-0.9979,-1.0102,-1.0158,-1.0186,-1.0188,-1.0185,-1.0203,-1.0164,-1.0139,-1.0163,-1.0163,-1.0163,-1.0163,-1.0163,-1.0163,-0.8738,-0.8845,-0.8902,-0.9053,-0.913,-0.9244,-0.9304,-0.9388,-0.9471,-0.9618,-0.9713,-0.9786,-0.9895,-1.0027,-1.0136,-1.0167,-1.021,-1.0206,-1.0244,-1.0206,-1.0205,-1.0204,-1.0181,-1.0214,-1.0214,-1.0275,-1.0275,-1.0276]},{"header":{"parameterUnit":"m.s-1","parameterCategory":1,"la1":30.2991,"la2":30.254,"lo1":-89.0895,"lo2":-89.0444,"dy":0.0017,"dx":0.0017,"nx":28,"ny":28,"refTime":"2023-11-10T09:00:00:Z","depth":0,"parameterNumber":3,"parameterNumberName":"V-component_of_WINDS"},"data":[0,0,0,0,0,0,0,0,0,0,0,0,0,0,0,0,0,0,0,0,0,0,0,0,0,0,0,0,0,0,0,0,0,0,0,0,0,0,0,0,0,0,0,0,0,0,0,0,0,0,0,0,0,0,0,0,0,0,-4.9603,-4.9601,0,-4.948,-4.9478,-4.9477,-4.9349,-4.9347,-4.9345,-4.9343,-4.921,-4.9208,-4.9206,0,0,0,0,0,0,0,0,0,0,0,0,0,-4.9719,-4.9718,-4.9603,-4.9601,-4.96,-4.948,-4.9478,-4.9476,-4.9349,-4.9347,-4.9345,-4.9343,-4.9211,-4.9208,-4.9206,0,0,0,0,0,0,0,0,0,0,0,0,0,-4.964,-4.9718,-4.9603,-4.9522,-4.9513,-4.948,-4.9478,-4.9476,-4.9349,-4.9347,-4.9344,-4.9342,-4.9211,-4.9209,-4.9206,-4.9241,0,0,-4.9197,-4.9196,0,0,0,0,0,0,0,0,-4.9644,-4.9636,-4.9535,-4.9527,-4.9518,-4.9427,-4.947,-4.9397,-4.935,-4.9411,-4.9343,-4.934,-4.9284,-4.9275,-4.9257,-4.9234,-4.9229,-4.9197,-4.9195,-4.9194,-4.9193,0,0,0,0,0,0,0,-4.965,-4.964,-4.9554,-4.9534,-4.9523,-4.9489,-4.9475,-4.9456,-4.9364,-4.9406,-4.9396,-4.9384,-4.9278,-4.926,-4.9253,-4.9227,-4.9197,-4.9194,-4.9192,-4.9191,-4.9222,-4.9225,0,0,0,0,0,0,-4.9669,-4.9646,-4.9558,-4.955,-4.9576,-4.9489,-4.9473,-4.9459,-4.9364,-4.9347,-4.9386,-4.9378,-4.9267,-4.9257,-4.9248,-4.9281,-4.9194,-4.9191,-4.9189,-4.922,-4.9223,-4.9225,0,0,0,0,0,0,-4.9672,-4.9663,-4.9563,-4.9595,-4.958,-4.949,-4.9475,-4.9458,-4.9439,-4.9349,-4.9331,-4.9385,-4.9264,-4.9252,-4.9243,-4.9274,-4.919,-4.9187,-4.9217,-4.9221,-4.9224,-4.9348,0,0,0,0,0,0,-4.9676,-4.9664,-4.9679,-4.9597,-4.9579,-4.9563,-4.9477,-4.9457,-4.9436,-4.9424,-4.9343,-4.9327,-4.9261,-4.9248,-4.924,-4.9269,-4.9185,-4.9213,-4.9218,-4.9223,-4.9341,-4.9356,-4.9368,0,0,0,0,0,-4.9681,-4.9718,-4.968,-4.967,-4.9595,-4.9565,-4.9555,-4.948,-4.9439,-4.9451,-4.9392,-4.933,-4.9272,-4.9248,-4.9238,-4.9267,-4.9211,-4.9217,-4.9223,-4.9335,-4.9353,-4.9368,0,0,0,0,0,0,-4.9804,-4.9705,-4.9663,-4.9675,-4.963,-4.9544,-4.9557,-4.9502,-4.9466,-4.9457,-4.9363,-4.9346,-4.9347,-4.9305,-4.9281,-4.9293,-4.9232,-4.9237,-4.9321,-4.9338,-4.9351,-4.9361,-4.9182,0,0,0,0,0,-4.9833,-4.9819,-4.9733,-4.9751,-4.9731,-4.9649,-4.9633,-4.9579,-4.9527,-4.9507,-4.9448,-4.9398,-4.9368,-4.935,-4.9318,-4.9334,-4.9312,-4.9348,-4.9362,-4.9373,-4.9378,-4.938,-4.9394,-4.9244,-4.9244,-4.9244,0,0,-4.9892,-4.9836,-4.9833,-4.9775,-4.9734,-4.9719,-4.9633,-4.9622,-4.9609,-4.9504,-4.9493,-4.9447,-4.9385,-4.9388,-4.9386,-4.9353,-4.9414,-4.9381,-4.9391,-4.9389,-4.9388,-4.9402,-4.9415,-4.9248,-4.9247,-4.9247,0,0,-4.9992,-4.995,-4.996,-4.992,-4.9859,-4.9804,-4.9806,-4.9728,-4.9695,-4.9682,-4.9603,-4.9584,-4.9536,-4.9494,-4.9467,-4.9549,-4.9489,-4.9541,-4.9613,-4.9616,-4.9628,-4.9638,-4.9666,-4.9677,-4.9545,-4.9546,-4.9546,0,-5.0072,-5.005,-4.9972,-4.9965,-4.994,-4.9847,-4.9855,-4.9819,-4.975,-4.9734,-4.9698,-4.9634,-4.9586,-4.9577,-4.9597,-4.9578,-4.9576,-4.955,-4.9633,-4.9642,-4.965,-4.9676,-4.9686,-4.9552,-4.9551,-4.9551,-4.955,0,-5.0151,-5.0136,-5.0151,-5.0089,-5.0066,-5.0067,-4.9986,-4.9971,-4.9919,-4.9867,-4.9853,-4.9791,-4.9744,-4.9737,-4.9686,-4.972,-4.9702,-4.9651,-4.9588,-4.9673,-4.9695,-4.9704,-4.9562,-4.9559,-4.9557,-4.9556,0,0,-5.0326,-5.022,-5.0227,-5.0197,-5.0122,-5.0107,-5.0102,-5.0058,-5.0047,-5.0001,-4.9993,-4.9953,-4.9905,-4.9874,-4.9816,-4.982,-4.9886,-4.9767,-4.9764,-4.9791,-4.9917,-4.9956,-4.9969,-4.9846,-4.9847,-4.9848,-4.9922,0,-5.0413,-5.0402,-5.033,-5.0338,-5.0322,-5.0231,-5.0226,-5.0178,-5.0128,-5.0104,-5.0047,-5.002,-4.996,-4.994,-4.994,-4.9879,-4.991,-4.9872,-4.9834,-4.9834,-4.9853,-4.998,-5.0021,-5.0094,-4.993,-4.9932,-4.9933,0,-5.0513,-5.0476,-5.0483,-5.0407,-5.0397,-5.0395,-5.0347,-5.0327,-5.0268,-5.0231,-5.0196,-5.0131,-5.0117,-5.0058,-5.0035,-5.0011,-4.999,-4.9958,-4.9958,-4.9952,-4.9889,-4.9976,-5.0116,-5.0127,-4.9946,-4.9945,-4.9944,0,-5.0639,-5.0591,-5.0588,-5.0565,-5.0476,-5.0476,-5.0438,-5.0378,-5.0355,-5.0312,-5.0296,-5.0251,-5.0227,-5.0192,-5.0115,-5.008,-5.01,-5.0035,-5.0066,-5.0068,-5.0075,-5.0076,-5.0213,-5.0063,-5.0063,-5.0063,-5.0063,0,-5.0743,-5.0751,-5.0644,-5.0643,-5.0647,-5.0563,-5.0569,-5.0521,-5.0468,-5.0453,-5.0371,-5.0358,-5.0258,-5.0233,-5.0172,-5.0161,-5.015,-5.0118,-5.0101,-5.0125,-5.0129,-5.011,-5.0103,-5.0066,-5.0065,-5.0064,-5.0064,0,-5.0886,-5.0815,-5.0806,-5.0722,-5.0701,-5.0708,-5.0635,-5.0628,-5.0572,-5.0554,-5.0545,-5.0457,-5.0422,-5.0342,-5.0286,-5.0245,-5.0249,-5.0219,-5.027,-5.0259,-5.0294,-5.0292,-5.0424,-5.0436,-5.028,-5.0282,-5.0283,0,-5.0957,-5.0961,-5.0878,-5.0864,-5.083,-5.0808,-5.0784,-5.07,-5.0679,-5.0611,-5.0612,-5.0572,-5.0535,-5.0483,-5.0411,-5.0367,-5.0335,-5.0384,-5.0328,-5.0351,-5.0334,-5.0335,-5.0334,-5.0397,-5.0399,-5.0401,-5.0402,0,-5.1091,-5.1055,-5.1026,-5.0985,-5.096,-5.0923,-5.088,-5.0872,-5.0776,-5.0756,-5.0721,-5.0693,-5.0635,-5.0595,-5.0539,-5.0495,-5.0432,-5.0421,-5.0425,-5.0449,-5.0478,-5.0462,-5.0303,-5.0418,-5.0417,-5.0415,-5.0415,-5.0414,-5.1199,-5.1197,-5.1139,-5.1109,-5.1068,-5.103,-5.102,-5.0963,-5.0933,-5.0882,-5.0833,-5.0802,-5.074,-5.0659,-5.062,-5.0592,-5.056,-5.0567,-5.0568,-5.0571,-5.0581,-5.0483,-5.0581,-5.058,-5.058,-5.0579,-5.0579,0,-5.1327,-5.1285,-5.1258,-5.1203,-5.1178,-5.1123,-5.1072,-5.1055,-5.103,-5.0979,-5.0944,-5.0902,-5.0862,-5.0787,-5.0739,-5.0731,-5.07,-5.0721,-5.0721,-5.0711,-5.0613,-5.0613,-5.0747,-5.0747,-5.0747,-5.0747,-5.0747,-5.0746,-5.1392,-5.1386,-5.1343,-5.1315,-5.1271,-5.1243,-5.1219,-5.1182,-5.114,-5.1098,-5.1066,-5.1018,-5.0955,-5.0902,-5.0861,-5.084,-5.0825,-5.0855,-5.0824,-5.0734,-5.0718,-5.0703,-5.0703,-5.0853,-5.0853,-5.0924,-5.0925,-5.0926]}]]